Notices

What's New in latest Release from April 7th, 2021:

- Updated Glossary, including Speed of Maximum Gust, and Total Hourly Precipitation

- Updated national and regional climate services offices contacts and prices information

- Addition of station inventory lists for 1981-2010, 1971-2000, and 1961-1990 Normals.

If you haven't already, please take our survey and provide feedback about our website: https://eccc.sondage-survey.ca/f/LanguageSelection.aspx?s=442ca660-fcf1-47c0-95a9-59707d6fd709

Hourly Data Report for June 25, 2015

KELOWNA UBCO
BRITISH COLUMBIA

49°56'26.700" N
119°24'00.760" W
456.00 m
1123996
71644
VKU

Download Data

Hourly Data (June 2015)
Hourly Data Report for June 25, 2015
TIME
LST
Temp Definition
°C
Dew Point Definition
°C
Rel Hum Definition
%
Precip. Amount Definition
mm

Wind Dir Definition
10's deg

Wind Spd Definition
km/h
Visibility Definition
km
Stn Press Definition
kPa
Hmdx Definition


Wind Chill Definition


Weather Definition


00:00 19.1 7.0 46 0.0       96.44     LegendNANA
01:00 18.2 6.8 47 0.0       96.46     LegendNANA
02:00 18.1 6.6 47 0.0       96.48     LegendNANA
03:00 17.1 7.2 52 0.0       96.52     LegendNANA
04:00 16.1 6.8 54 0.0       96.58     LegendNANA
05:00 15.2 8.8 66 0.0       96.62     LegendNANA
06:00 18.4 8.7 53 0.0       96.64     LegendNANA
07:00 22.0 7.2 38 0.0       96.67     LegendNANA
08:00 23.6 7.0 34 0.0       96.67     LegendNANA
09:00 25.1 6.8 31 0.0       96.65 25   LegendNANA
10:00 27.0 8.0 30 0.0       96.62 27   LegendNANA
11:00 28.7 7.9 27 0.0       96.58 29   LegendNANA
12:00 30.7 8.4 25 0.0       96.50 31   LegendNANA
13:00 31.4 8.5 24 0.0       96.45 32   LegendNANA
14:00 31.8 8.7 24 0.0       96.41 33   LegendNANA
15:00 32.9 8.1 22 0.0       96.34 33   LegendNANA
16:00 33.0 8.0 21 0.0       96.32 33   LegendNANA
17:00 32.9 6.8 20 0.0       96.28 33   LegendNANA
18:00 31.9 8.0 23 0.0       96.26 32   LegendNANA
19:00 30.0 8.3 26 0.0       96.29 31   LegendNANA
20:00 29.0 8.8 28 0.0       96.31 30   LegendNANA
21:00 25.6 10.4 38 0.0       96.36 27   LegendNANA
22:00 23.2 10.0 43 0.0       96.43     LegendNANA
23:00 23.3 9.9 43 0.0       96.46 25   LegendNANA

Notes on Data Quality.

Legend

  • E = Estimated
  • M = Missing
  • NA = Not Available*
  • [empty] = Indicates an unobserved value
Date modified: